Theta_e
323 323 322 322 322 322 322 322 323 323 324 324 325 324 325 325 323 327 324 330 337 343 342 334 333 333 334 330 332 332 317 314 316 316 318 326 323 327 329 328 327 328 328 330 338
322 322 321 321 321 321 321 321 322 322 323 324 324 324 324 325 324 326 326 344 342 345 332 327 327 329 329 328 329 324 316 315 321 323 321 324 324 326 326 326 326 326 330 332 334
321 321 321 321 321 320 320 321 321 322 322 323 323 324 324 325 325 324 337 347 343 344 333 330 331 330 326 328 326 323 317 321 321 325 327 326 326 329 326 324 327 325 329 331 332
320 321 320 320 320 320 320 320 321 322 322 323 323 324 325 330 317 328 347 347 346 334 328 327 329 327 323 322 327 319 323 323 323 326 326 325 328 326 328 329 332 331 331 331 330
320 320 319 319 319 319 319 319 320 320 321 323 324 324 325 324 327 336 348 343 332 328 326 326 328 327 322 323 326 322 323 325 327 327 327 328 327 326 327 332 334 332 331 330 330
318 318 318 318 318 318 318 318 318 318 321 325 324 321 324 319 335 336 335 332 331 328 329 328 326 329 325 323 322 323 324 324 326 327 328 326 327 328 330 333 333 332 330 330 329
318 318 317 317 317 317 317 317 317 318 323 324 323 325 322 323 332 335 334 330 327 326 324 331 331 328 327 322 325 324 321 321 324 326 325 328 323 325 331 333 331 332 331 330 330
317 317 316 317 317 317 317 317 318 321 325 325 325 325 321 330 334 332 332 328 327 328 327 328 332 330 325 328 324 320 320 313 322 323 328 327 318 328 333 332 330 331 332 331 331
317 316 316 316 317 316 316 316 319 324 326 325 327 324 320 326 326 330 331 325 326 327 328 330 330 326 325 319 315 316 311 313 316 324 323 324 318 328 333 331 329 332 333 333 333
317 316 315 315 316 315 315 316 322 322 323 327 324 319 322 322 327 328 330 327 324 325 325 326 324 320 320 317 309 311 311 313 313 320 321 318 318 323 331 330 329 330 331 333 333
316 315 315 315 315 314 318 324 320 320 320 316 317 320 322 326 326 326 329 325 323 322 316 321 316 313 315 318 317 316 316 310 317 321 319 318 318 321 327 329 330 331 330 331 332
316 315 315 315 314 314 318 318 315 317 312 319 318 318 321 323 319 324 329 321 320 316 319 317 313 317 318 318 318 317 314 314 318 319 320 317 317 321 324 324 328 329 329 331 333
314 314 315 314 313 318 321 317 321 321 315 316 316 316 319 322 320 320 325 323 320 317 317 314 316 317 317 317 315 314 314 314 314 318 321 319 315 316 323 327 329 332 332 331 331
314 314 314 311 314 319 320 320 322 323 311 311 312 314 319 321 318 325 325 322 320 316 317 316 318 315 315 314 316 311 317 316 315 314 311 317 306 310 320 323 325 326 328 329 330
313 314 313 310 318 316 319 321 323 323 302 313 312 320 319 317 320 320 326 322 315 316 317 314 316 315 313 315 317 315 318 318 316 315 314 313 308 312 314 318 322 325 328 329 330
313 313 312 313 320 320 320 321 324 310 302 309 312 311 313 316 318 319 320 322 321 316 317 316 321 317 316 317 319 320 317 316 316 312 307 311 308 304 313 317 321 325 328 329 329
312 312 312 318 316 321 321 319 311 306 314 308 308 311 310 312 314 314 315 312 310 307 308 312 314 317 319 314 320 317 316 306 305 305 302 313 310 313 318 321 323 325 328 329 329
310 308 314 319 321 321 321 315 308 310 310 311 310 310 308 312 313 313 312 311 315 314 310 308 306 314 318 315 313 316 315 304 300 301 304 311 305 313 321 326 327 328 329 330 328
307 321 321 325 325 324 318 309 311 312 313 310 309 307 308 312 312 312 311 311 314 316 310 309 308 316 317 318 317 314 312 318 310 311 303 308 313 314 318 321 325 327 328 329 329
314 318 319 326 328 324 314 307 313 314 314 313 306 309 307 309 309 311 310 314 313 316 318 314 308 313 316 318 318 316 318 309 310 301 300 304 305 308 316 318 322 324 326 327 326
318 313 324 327 327 317 310 312 312 315 316 314 312 308 310 309 309 309 309 313 314 314 317 316 314 311 313 312 311 314 313 311 314 309 303 301 307 318 319 321 323 325 327 326 325
316 309 325 327 313 315 312 312 305 315 318 317 319 316 314 313 309 309 310 314 320 318 313 317 316 309 310 316 317 316 314 315 309 307 308 307 308 321 325 325 326 325 327 326 326
313 313 325 323 308 311 314 312 313 314 316 316 317 320 320 315 310 311 312 321 319 319 318 319 314 308 308 314 319 315 316 316 316 316 310 306 306 320 325 326 328 326 327 325 326
312 308 314 318 317 316 312 312 312 316 315 317 319 321 320 316 319 313 315 319 321 322 323 324 319 312 306 309 313 309 311 314 314 308 309 309 311 318 322 323 326 327 327 325 326
313 312 320 311 312 313 316 314 312 312 316 319 319 319 317 314 315 314 318 318 320 315 321 327 315 313 313 312 312 311 310 312 310 312 309 311 313 320 323 325 326 327 327 324 325
311 311 320 316 319 315 309 314 313 314 315 315 317 318 319 318 321 315 317 319 318 322 322 323 315 315 312 313 312 310 313 311 312 313 314 315 314 322 325 325 325 326 326 325 325
319 318 317 312 316 313 312 313 314 316 318 319 320 318 318 322 325 327 328 328 327 323 319 320 318 313 309 313 312 308 312 311 314 316 317 313 318 324 322 323 324 325 325 326 327
Wind_Speed
19 18 16 16 17 18 18 17 17 16 13 13 10 9 10 9 9 8 7 7 4 16 6 9 10 11 14 3 7 12 3 11 5 14 13 8 6 3 4 0 3 4 5 7 14
18 19 18 18 17 18 19 18 18 18 14 12 10 8 8 8 12 15 4 9 16 13 12 9 5 7 6 5 5 9 11 10 9 6 11 8 3 7 5 5 5 5 7 4 9
19 20 20 20 19 18 19 20 18 19 15 12 10 9 8 9 13 7 5 6 11 12 15 10 8 13 2 8 7 15 10 2 7 8 10 8 0 2 1 2 5 2 12 9 8
19 20 20 20 21 19 19 20 19 18 16 10 10 8 7 9 4 8 5 7 9 11 16 10 11 15 3 12 3 7 4 5 6 5 2 2 2 1 3 8 6 3 7 9 8
16 19 20 21 21 21 20 19 19 17 15 9 7 7 8 12 5 10 9 10 12 12 11 9 12 10 12 7 5 12 3 2 3 2 3 3 7 4 5 1 6 1 5 8 8
17 18 20 21 21 22 21 18 18 16 14 7 4 5 10 14 7 11 12 12 12 8 5 9 10 9 4 4 9 2 2 1 4 2 5 7 10 3 6 3 6 5 7 7 7
17 18 20 22 22 23 22 18 17 14 12 5 3 6 10 4 2 7 9 10 3 7 12 7 9 14 10 4 0 3 4 17 7 5 2 6 12 8 2 4 5 7 7 7 8
18 18 19 21 23 24 23 20 17 11 9 5 4 8 9 4 2 8 9 7 6 8 9 10 9 13 5 4 11 5 14 10 14 1 8 8 11 8 6 5 6 7 7 8 9
18 19 20 22 24 26 25 20 14 10 8 5 7 8 9 3 8 8 10 8 7 8 7 8 12 14 11 11 4 30 6 7 13 12 2 6 6 11 8 4 4 7 7 8 10
20 20 21 23 25 26 27 11 3 6 8 8 5 6 6 11 8 7 10 6 7 6 11 13 16 16 7 14 11 14 10 5 8 14 14 9 9 13 11 4 3 3 4 8 11
19 20 22 23 25 25 19 5 7 9 6 9 2 15 5 7 5 10 10 10 6 12 16 4 14 12 10 9 8 8 16 22 11 9 13 11 5 11 9 10 10 7 4 3 3
19 21 22 25 25 26 11 8 7 7 9 7 8 9 6 7 9 12 12 11 13 16 6 12 8 8 8 4 9 24 16 13 5 3 9 6 4 8 8 4 8 9 5 2 1
19 21 23 28 26 13 6 7 8 4 9 10 11 10 11 11 14 14 14 16 15 15 11 10 5 3 11 11 6 10 13 10 10 13 6 6 17 17 8 12 11 10 6 4 6
19 20 21 30 6 10 0 6 10 3 8 13 12 8 9 10 13 7 14 19 13 15 14 8 2 5 13 6 10 5 11 12 9 13 6 12 8 23 6 14 13 9 10 11 9
19 19 21 8 11 7 7 9 9 5 7 8 14 6 11 15 11 12 6 9 17 15 10 13 8 7 10 10 8 12 10 17 22 24 10 12 5 6 32 10 12 9 9 9 8
20 18 18 2 10 9 10 11 6 8 2 8 10 11 15 16 13 4 9 8 12 16 15 13 17 4 15 7 7 11 17 8 18 9 5 10 11 2 3 10 9 9 11 7 9
23 22 9 9 7 11 10 8 8 9 5 8 11 15 18 14 14 11 8 8 8 11 14 17 19 16 9 15 7 22 24 9 8 3 5 16 4 5 12 12 10 7 11 9 9
27 23 7 9 10 9 8 9 8 7 2 4 5 16 15 16 17 14 13 14 18 18 16 16 15 21 12 12 13 17 10 10 15 12 13 6 6 14 12 10 8 8 9 8 9
29 5 5 3 5 5 9 10 8 7 5 3 8 12 14 12 10 12 12 14 10 12 13 12 9 4 5 4 5 2 7 17 11 12 5 9 15 19 25 10 9 9 8 7 7
9 9 7 2 1 6 8 11 3 3 6 7 8 11 12 13 13 10 12 11 12 9 8 8 11 2 8 7 12 11 11 11 7 6 10 12 10 5 14 12 10 7 8 5 4
7 6 7 4 5 7 11 2 1 3 2 5 3 6 7 11 14 15 9 3 3 2 8 10 6 6 2 11 14 10 8 5 6 9 11 12 7 14 13 10 9 7 7 6 5
6 6 6 5 7 8 10 2 1 5 4 4 8 6 2 2 8 8 8 3 3 3 7 10 5 11 16 4 4 6 11 11 7 12 13 10 8 24 9 11 8 4 5 7 5
6 8 6 6 7 9 5 5 3 5 1 3 3 3 2 3 4 5 3 6 3 5 2 5 8 11 10 16 18 7 8 7 4 8 10 12 3 2 12 10 8 9 6 4 3
6 5 7 7 9 10 3 8 6 6 6 4 3 4 5 5 5 8 9 4 4 1 2 2 5 9 4 10 6 6 2 1 5 7 10 10 17 15 16 13 9 2 4 6 5
6 3 6 4 10 8 4 4 9 7 7 5 7 5 2 5 9 9 11 10 8 6 5 4 8 7 6 9 7 5 6 7 5 7 7 12 12 15 12 12 10 6 5 4 5
7 5 2 9 5 7 5 10 11 4 6 9 9 4 4 2 8 9 10 10 8 9 4 3 7 7 13 4 7 9 7 3 6 5 9 12 9 10 12 10 9 9 2 12 3
2 5 6 4 9 11 11 11 9 2 6 5 8 6 6 7 6 6 6 6 4 2 3 5 7 5 13 4 8 12 2 6 10 10 10 10 13 12 13 12 12 11 8 8 5
Wind_Direction
343 344 346 343 341 334 332 331 327 326 325 321 320 307 304 303 286 222 248 94 177 177 210 229 230 246 236 157 277 269 36 71 51 87 108 141 123 92 83 45 58 71 25 50 113
346 341 342 343 343 335 330 330 329 324 329 325 315 299 298 311 267 248 128 158 161 168 220 230 254 254 209 185 314 286 73 63 58 353 95 102 25 110 230 143 159 161 120 133 144
343 342 340 341 340 335 330 328 329 324 329 325 311 300 298 291 265 88 169 162 180 194 263 298 284 262 159 60 333 42 68 91 113 40 344 75 76 63 276 86 72 82 126 146 160
340 339 339 338 334 334 329 326 327 326 323 326 309 306 314 246 315 83 156 169 192 240 268 272 248 252 26 70 337 140 91 334 82 132 277 319 356 253 275 69 36 69 103 152 172
340 336 334 335 331 330 326 326 323 324 316 324 313 320 274 228 81 125 150 188 215 246 264 281 275 338 44 71 278 20 64 251 167 240 277 350 281 275 233 221 122 115 137 168 171
340 335 334 333 329 325 322 324 316 318 309 323 315 322 244 260 107 137 181 185 249 245 298 269 341 349 328 42 7 340 325 100 181 214 187 252 259 164 135 183 162 176 172 181 175
339 334 334 329 326 321 319 319 308 309 299 309 301 292 266 343 80 153 181 209 249 270 306 2 310 303 317 271 234 264 272 340 133 82 311 298 267 200 116 185 200 192 191 200 186
336 334 332 327 324 320 319 310 301 291 272 271 274 267 268 64 8 183 200 216 238 268 282 293 291 285 276 339 245 195 335 162 92 115 93 290 97 106 117 178 212 202 216 203 209
334 334 331 329 323 320 314 304 286 263 243 224 234 233 224 147 210 195 200 236 206 253 263 288 261 277 239 184 99 285 37 2 136 75 334 225 308 137 139 188 228 214 208 215 217
337 335 330 328 323 317 310 276 319 261 226 220 272 237 211 219 156 199 200 247 242 261 245 237 240 242 287 350 24 356 340 31 42 44 329 21 2 70 128 129 149 217 198 215 216
334 331 329 324 320 316 320 225 215 191 285 285 287 217 123 121 170 211 189 209 241 256 272 222 286 36 357 343 329 293 44 312 62 29 326 37 18 74 99 144 150 180 168 216 282
331 330 327 323 319 313 283 39 41 330 297 242 240 276 288 286 213 211 189 217 217 251 214 251 264 33 319 317 31 330 342 15 45 43 296 8 293 111 104 97 80 90 89 87 262
331 331 329 321 320 294 359 34 316 316 255 182 214 242 207 209 228 198 200 219 245 243 255 285 351 326 286 289 341 166 345 358 337 298 239 33 65 305 147 106 108 116 152 110 45
330 330 329 323 303 337 109 339 333 350 262 156 197 214 206 224 230 262 198 247 245 258 258 256 21 261 281 319 351 48 5 312 341 302 25 313 111 320 192 121 92 65 50 39 26
329 328 324 330 313 308 356 328 339 238 232 136 142 84 207 217 198 193 246 263 267 254 255 269 242 289 293 25 343 328 317 31 328 311 50 334 12 69 287 71 95 82 64 35 31
325 324 330 174 246 278 314 313 252 230 177 142 154 190 191 205 224 89 197 222 299 294 286 262 291 287 283 333 271 307 283 135 285 357 236 285 326 326 274 43 47 76 74 35 25
321 315 297 307 300 336 314 265 236 261 119 142 179 167 195 188 198 221 201 210 233 252 281 273 252 258 223 273 58 342 297 321 282 271 5 17 303 70 55 50 42 57 69 46 26
319 310 180 263 306 305 278 250 267 35 39 80 191 179 194 193 209 201 211 235 210 237 252 272 241 218 203 242 286 214 341 117 276 330 12 262 266 60 49 105 90 94 77 46 34
311 270 250 199 290 281 266 246 355 21 22 267 183 192 200 177 213 191 216 230 220 207 251 284 268 119 342 303 280 182 246 262 324 305 193 339 75 33 292 57 91 88 75 47 45
315 292 258 3 226 246 255 273 310 2 284 250 205 207 196 186 196 203 193 221 258 232 251 270 272 273 141 244 243 263 308 294 201 277 337 329 95 177 22 29 27 81 69 49 43
265 268 97 176 210 235 249 357 313 64 290 274 318 190 246 188 199 218 224 180 239 209 223 239 257 270 223 228 259 210 235 302 286 63 309 314 32 16 354 41 20 36 38 38 24
287 247 109 206 235 233 253 92 40 283 191 244 291 347 311 170 202 207 191 131 58 283 230 230 273 264 261 98 268 271 307 330 317 335 334 316 35 342 50 39 24 1 74 31 18
277 293 135 236 242 221 202 246 252 270 302 285 192 318 256 197 187 228 139 74 136 207 247 161 226 251 5 326 333 258 9 326 280 272 271 298 51 218 74 60 38 350 20 156 30
274 245 188 210 274 288 228 233 231 204 257 250 296 237 194 189 224 202 128 122 147 166 353 333 273 291 299 354 356 323 292 180 318 280 336 338 347 9 19 10 1 320 339 14 47
240 269 15 185 212 242 280 330 234 205 230 227 207 256 244 204 175 188 127 140 146 146 182 279 286 307 340 332 305 330 303 302 245 288 321 332 327 15 6 350 18 340 360 297 220
303 319 312 286 293 242 209 231 241 173 250 192 265 119 237 36 354 169 170 177 149 172 177 186 290 300 299 194 274 283 285 307 270 297 296 351 311 12 353 349 349 332 124 268 339
54 250 272 252 212 238 228 235 224 261 219 298 295 237 158 57 9 39 50 63 69 336 131 282 311 277 279 147 293 275 107 359 348 331 11 323 348 350 346 343 342 316 330 340 335